Weather History for K2G4 - January, 2013

Change the Weather History Date:

Saturday, January 5, 2013

  Actual Average (KMGW) Record (KMGW)
Temperature  
Mean Temperature 26 °F 31 °F  
Max Temperature 32 °F 39 °F 69 °F (1998)
Min Temperature 21 °F 24 °F -4 °F (1968)
Degree Days  
Heating Degree Days 38 34  
Month to date heating degree days 167  
Since 1 July heating degree days 2151  
Cooling Degree Days 0 0  
Month to date cooling degree days 0  
Year to date cooling degree days 0  
Moisture  
Dew Point 21 °F    
Average Humidity 84    
Maximum Humidity 100    
Minimum Humidity 64    
Precipitation  
Precipitation 0.00 in 0.09 in 1.44 in (2005)
Month to date precipitation 0.45  
Year to date precipitation 0.45  
Sea Level Pressure  
Sea Level Pressure 30.17 in    
Wind  
Wind Speed 12 mph (WSW)    
Max Wind Speed 20 mph    
Max Gust Speed 32 mph    
Visibility 10 miles    
Events      
T = Trace of Precipitation, MM = Missing Value Source: NWS Daily Summary

Daily Weather History Graph

Daily Weather History Graph

Search for Another Location

Airport or City:

Trip Planner

Search our weather history database for the weather conditions in past years. The results will help you decide how hot, cold, wet, or windy it might be!

Date:

Astronomy

Jan. 05, 2013 Rise Set
Actual Time 7:38 AM EST 5:07 PM EST
Civil Twilight 7:08 AM EST 5:37 PM EST
Nautical Twilight 6:34 AM EST 6:11 PM EST
Astronomical Twilight 6:02 AM EST 6:44 PM EST
Moon 12:43 AM EST (1/5) 11:55 AM EST (1/5)
Length of Visible Light 10h 29m
Length of Day
9h 29m
Last Quarter, 44% of the Moon is Illuminated
Jan 5
Last Quarter
Jan 11
New
Jan 18
First Quarter
Jan 26
Full
Feb 3
Last Quarter

Hourly Weather History & Observations

Time (EST) Temp. Windchill Dew Point Humidity Pressure Visibility Wind Dir Wind Speed Gust Speed Precip Events Conditions
12:15 AM 23.0 °F 8.3 °F 21.2 °F 93% 30.10 in 10.0 mi West 19.6 mph 29.9 mph N/A   Clear
12:35 AM 21.2 °F 9.5 °F 21.2 °F 100% 30.10 in 10.0 mi West 11.5 mph 29.9 mph N/A   Clear
12:55 AM 21.2 °F 8.3 °F 21.2 °F 100% 30.10 in 10.0 mi West 13.8 mph 28.8 mph N/A   Scattered Clouds
1:20 AM 21.2 °F 7.8 °F 21.2 °F 100% 30.11 in 10.0 mi West 15.0 mph 23.0 mph N/A   Mostly Cloudy
1:40 AM 21.2 °F 6.4 °F 21.2 °F 100% 30.12 in 10.0 mi West 18.4 mph 28.8 mph N/A   Overcast
2:00 AM 21.2 °F 8.3 °F 21.2 °F 100% 30.13 in 10.0 mi West 13.8 mph 25.3 mph N/A   Overcast
2:20 AM 21.2 °F 6.8 °F 21.2 °F 100% 30.14 in 10.0 mi West 17.3 mph 32.2 mph N/A   Overcast
2:45 AM 21.2 °F 7.3 °F 21.2 °F 100% 30.16 in 10.0 mi West 16.1 mph 28.8 mph N/A   Overcast
3:05 AM 21.2 °F 6.8 °F 21.2 °F 100% 30.16 in 10.0 mi West 17.3 mph 27.6 mph N/A   Overcast
3:25 AM 21.2 °F 7.3 °F 21.2 °F 100% 30.16 in 10.0 mi West 16.1 mph 26.5 mph N/A   Overcast
3:45 AM 21.2 °F 7.3 °F 21.2 °F 100% 30.16 in 10.0 mi West 16.1 mph 25.3 mph N/A   Overcast
4:10 AM 21.2 °F 7.8 °F 21.2 °F 100% 30.17 in 10.0 mi West 15.0 mph 25.3 mph N/A   Overcast
4:50 AM 21.2 °F 8.9 °F 21.2 °F 100% 30.18 in 10.0 mi West 12.7 mph 24.2 mph N/A   Overcast
6:15 AM 21.2 °F 8.3 °F 21.2 °F 100% 30.20 in 10.0 mi West 13.8 mph 21.9 mph N/A   Overcast
6:35 AM 21.2 °F 10.9 °F 21.2 °F 100% 30.21 in 10.0 mi West 9.2 mph 21.9 mph N/A   Overcast
7:00 AM 21.2 °F 9.5 °F 21.2 °F 100% 30.22 in 10.0 mi WSW 11.5 mph 21.9 mph N/A   Overcast
7:20 AM 21.2 °F 7.3 °F 21.2 °F 100% 30.23 in 10.0 mi West 16.1 mph 23.0 mph N/A   Overcast
8:00 AM 21.2 °F 8.9 °F 21.2 °F 100% 30.25 in 7.0 mi WSW 12.7 mph 21.9 mph N/A   Overcast
8:25 AM 21.2 °F 10.9 °F 21.2 °F 100% 30.25 in 10.0 mi WSW 9.2 mph - N/A   Overcast
8:45 AM 21.2 °F 10.1 °F 21.2 °F 100% 30.25 in 10.0 mi WSW 10.4 mph 17.3 mph N/A   Mostly Cloudy
9:05 AM 21.2 °F 11.7 °F 21.2 °F 100% 30.24 in 10.0 mi West 8.1 mph - N/A   Scattered Clouds
9:25 AM 23.0 °F 13.1 °F 23.0 °F 100% 30.23 in 10.0 mi West 9.2 mph - N/A   Scattered Clouds
9:50 AM 23.0 °F 12.4 °F 23.0 °F 100% 30.25 in 10.0 mi West 10.4 mph 19.6 mph N/A   Overcast
10:10 AM 23.0 °F 13.1 °F 23.0 °F 100% 30.26 in 10.0 mi West 9.2 mph 17.3 mph N/A   Overcast
10:30 AM 24.8 °F 16.1 °F 23.0 °F 93% 30.26 in 10.0 mi WSW 8.1 mph 17.3 mph N/A   Mostly Cloudy
10:50 AM 26.6 °F 18.2 °F 23.0 °F 86% 30.25 in 10.0 mi West 8.1 mph - N/A   Clear
11:15 AM 26.6 °F 20.0 °F 23.0 °F 86% 30.24 in 10.0 mi West 5.8 mph - N/A   Clear
11:55 AM 28.4 °F 21.2 °F 21.2 °F 74% 30.22 in 10.0 mi WSW 6.9 mph - N/A   Clear
12:15 PM 28.4 °F 21.2 °F 21.2 °F 74% 30.22 in 10.0 mi West 6.9 mph - N/A   Clear
12:40 PM 30.2 °F 22.6 °F 21.2 °F 69% 30.20 in 10.0 mi WSW 8.1 mph - N/A   Clear
1:00 PM 30.2 °F 24.3 °F 21.2 °F 69% 30.19 in 10.0 mi West 5.8 mph - N/A   Clear
1:20 PM 30.2 °F 24.3 °F 21.2 °F 69% 30.18 in 10.0 mi West 5.8 mph - N/A   Clear
1:40 PM 32.0 °F 26.4 °F 21.2 °F 64% 30.18 in 10.0 mi WSW 5.8 mph - N/A   Clear
2:05 PM 32.0 °F - 21.2 °F 64% 30.17 in 10.0 mi Calm Calm - N/A   Clear
2:25 PM 32.0 °F 27.5 °F 21.2 °F 64% 30.17 in 10.0 mi SW 4.6 mph - N/A   Clear
2:45 PM 32.0 °F 28.7 °F 21.2 °F 64% 30.17 in 10.0 mi SW 3.5 mph - N/A   Clear
3:05 PM 32.0 °F 26.4 °F 21.2 °F 64% 30.18 in 10.0 mi SSW 5.8 mph - N/A   Clear
3:50 PM 32.0 °F 28.7 °F 21.2 °F 64% 30.16 in 10.0 mi West 3.5 mph - N/A   Clear
4:10 PM 32.0 °F 28.7 °F 21.2 °F 64% 30.16 in 10.0 mi SW 3.5 mph - N/A   Clear
4:55 PM 30.2 °F 24.3 °F 21.2 °F 69% 30.15 in 10.0 mi SSW 5.8 mph - N/A   Clear
5:15 PM 30.2 °F 25.4 °F 21.2 °F 69% 30.15 in 10.0 mi SSW 4.6 mph - N/A   Clear
5:35 PM 28.4 °F 22.2 °F 21.2 °F 74% 30.14 in 10.0 mi South 5.8 mph - N/A   Clear
5:55 PM 28.4 °F 22.2 °F 21.2 °F 74% 30.13 in 10.0 mi SSW 5.8 mph - N/A   Clear
6:40 PM 28.4 °F 23.3 °F 19.4 °F 69% 30.13 in 10.0 mi South 4.6 mph - N/A   Clear
7:00 PM 28.4 °F 22.2 °F 21.2 °F 74% 30.15 in 10.0 mi South 5.8 mph - N/A   Clear
7:20 PM 28.4 °F - 21.2 °F 74% 30.13 in 10.0 mi Calm Calm - N/A   Clear
8:50 PM 28.4 °F 21.2 °F 21.2 °F 74% 30.13 in 10.0 mi West 6.9 mph - N/A   Overcast
9:10 PM 28.4 °F 22.2 °F 21.2 °F 74% 30.12 in 10.0 mi West 5.8 mph - N/A   Overcast
9:30 PM 28.4 °F 20.4 °F 21.2 °F 74% 30.13 in 10.0 mi West 8.1 mph - N/A   Overcast
9:50 PM 28.4 °F 22.2 °F 21.2 °F 74% 30.12 in 10.0 mi WSW 5.8 mph - N/A   Overcast
10:15 PM 30.2 °F 22.6 °F 21.2 °F 69% 30.10 in 10.0 mi WSW 8.1 mph - N/A   Overcast
10:35 PM 30.2 °F 22.6 °F 21.2 °F 69% 30.08 in 10.0 mi SW 8.1 mph - N/A   Overcast
10:55 PM 30.2 °F 22.6 °F 21.2 °F 69% 30.08 in 10.0 mi SW 8.1 mph - N/A   Overcast
11:15 PM 28.4 °F 20.4 °F 23.0 °F 80% 30.08 in 10.0 mi SW 8.1 mph - N/A   Overcast
11:40 PM 28.4 °F 21.2 °F 23.0 °F 80% 30.08 in 10.0 mi WSW 6.9 mph - N/A   Overcast